FW1981 Weather Reports


Display with metric or nautical units.
time (UTC)temp
F
wind
direction
speed
MPH
gust
MPH
rain 1hr
in
rain 24hr
in
rain mn
in
humidity
%
barometer
mb
20260904054021 65 191 8.0 13.0 0.01 0.16 0.03 89 1016.1
20260904053510 65 167 6.0 13.0 0.01 0.16 0.03 89 1016.1
20260904053016 65 176 7.0 13.0 0.01 0.16 0.03 89 1016.3
20260904052510 65 159 7.0 12.0 0.01 0.16 0.03 89 1016.3
20260904052017 65 188 7.0 11.0 0.01 0.16 0.03 89 1016.3
20260904051510 65 121 7.0 12.0 0.02 0.16 0.03 89 1016.6
20260904051016 65 174 5.0 13.0 0.01 0.15 0.02 88 1016.6
20260904050510 65 172 5.0 13.0 0.01 0.15 0.02 88 1016.7
20260904050017 65 200 6.0 14.0 0.01 0.15 0.02 89 1016.6
20260904045509 65 122 8.0 17.0 0.01 0.15 0.02 89 1016.6
20260904045017 65 164 10.0 17.0 0.01 0.15 0.02 89 1016.6
20260904044510 65 185 6.0 12.0 0.01 0.15 0.02 90 1016.8
20260904044016 65 141 6.0 15.0 0.02 0.15 0.02 89 1016.8
20260904043509 65 152 8.0 15.0 0.02 0.15 0.02 89 1016.8
20260904043028 65 148 6.0 12.0 0.02 0.15 0.02 89 1016.8
20260904042520 65 189 6.0 12.0 0.02 0.15 0.02 89 1017.0
20260904042016 65 134 5.0 13.0 0.02 0.15 0.02 89 1016.9
20260904041520 65 194 6.0 13.0 0.01 0.14 0.01 90 1017.1
20260904041018 65 168 6.0 11.0 0.01 0.14 0.01 90 1017.0
20260904040509 65 159 7.0 11.0 0.01 0.14 0.01 90 1017.1
20260904040019 64 119 6.0 11.0 0.01 0.14 0.01 90 1017.2
20260904035510 64 125 3.0 10.0 0.01 0.14 0.01 89 1017.1
20260904035017 64 180 4.0 13.0 0.01 0.14 0.01 88 1017.3
20260904034509 65 193 7.0 13.0 0.01 0.14 0.01 87 1017.5
20260904034017 65 203 8.0 13.0 0.00 0.13 0.00 86 1017.4
20260904033509 66 218 5.0 13.0 0.00 0.13 0.00 86 1017.4
20260904033027 66 147 5.0 13.0 0.00 0.13 0.00 87 1017.4
20260904032509 66 147 7.0 13.0 0.00 0.13 0.00 87 1017.3
20260904032016 66 157 7.0 12.0 0.00 0.13 0.00 89 1017.4
20260904031520 66 191 4.0 9.0 0.00 0.13 0.00 89 1017.4
20260904031017 66 131 3.0 10.0 0.00 0.13 0.00 89 1017.4
20260904030509 66 172 4.0 10.0 0.00 0.13 0.00 89 1017.5
20260904030017 66 197 4.0 8.0 0.00 0.13 0.00 89 1017.5
20260904025509 66 148 3.0 7.0 0.00 0.13 0.13 89 1017.7
20260904025017 66 161 3.0 9.0 0.00 0.13 0.13 89 1017.7
20260904024509 65 222 4.0 9.0 0.00 0.13 0.13 89 1017.8
20260904024017 65 193 4.0 7.0 0.00 0.13 0.13 89 1017.9
20260904023509 65 160 4.0 7.0 0.00 0.13 0.13 89 1017.9
20260904023016 65 217 3.0 7.0 0.00 0.13 0.13 89 1018.0
20260904022509 65 168 3.0 7.0 0.00 0.13 0.13 89 1018.0
20260904022029 65 211 3.0 7.0 0.00 0.13 0.13 88 1018.1
20260904021521 65 138 4.0 7.0 0.00 0.13 0.13 88 1018.2
20260904021016 65 154 3.0 7.0 0.00 0.13 0.13 88 1018.4
20260904020509 65 124 2.0 5.0 0.00 0.13 0.13 88 1018.4
20260904020017 65 161 2.0 6.0 0.00 0.13 0.13 88 1018.7
20260904015514 65 194 4.0 8.0 0.00 0.13 0.13 88 1018.8
20260904015017 65 155 4.0 8.0 0.00 0.13 0.13 88 1018.7
20260904014509 65 173 3.0 6.0 0.00 0.13 0.13 88 1018.9
20260904014027 65 222 3.0 6.0 0.00 0.13 0.13 88 1019.0
20260904013509 65 167 3.0 6.0 0.00 0.13 0.13 88 1019.1
20260904013017 65 192 3.0 5.0 0.00 0.13 0.13 88 1019.2
20260904012521 65 196 3.0 7.0 0.00 0.13 0.13 88 1019.1
20260904012016 65 226 3.0 7.0 0.00 0.13 0.13 88 1019.2
20260904011510 64 200 2.0 7.0 0.00 0.13 0.13 87 1019.3
20260904011017 64 169 2.0 7.0 0.00 0.13 0.13 87 1019.2
20260904010509 64 198 3.0 6.0 0.00 0.13 0.13 87 1019.4
20260904010018 64 200 3.0 7.0 0.00 0.13 0.13 87 1019.4
20260904005520 64 150 3.0 7.0 0.00 0.13 0.13 87 1019.3
20260904005016 64 160 3.0 6.0 0.00 0.13 0.13 87 1019.4
20260904004510 64 186 3.0 6.0 0.00 0.13 0.13 87 1019.4
20260904004028 64 143 2.0 5.0 0.00 0.13 0.13 87 1019.5
20260904003509 64 169 2.0 6.0 0.00 0.13 0.13 87 1019.4
20260904003017 64 174 2.0 6.0 0.00 0.13 0.13 87 1019.6
20260904002510 64 164 2.0 6.0 0.00 0.13 0.13 87 1019.5
20260904002016 64 219 2.0 6.0 0.00 0.13 0.13 87 1019.6
20260904001510 64 195 2.0 4.0 0.00 0.13 0.13 87 1019.6
20260904001017 63 199 2.0 3.0 0.00 0.13 0.13 87 1019.7
20260904000509 63 210 2.0 3.0 0.00 0.13 0.13 87 1019.7
20260904000016 63 143 2.0 5.0 0.00 0.13 0.13 86 1019.8
20260903235509 63 176 2.0 6.0 0.00 0.13 0.13 86 1019.7
20260903235016 63 153 1.0 6.0 0.00 0.13 0.13 86 1019.7
20260903234510 63 186 2.0 5.0 0.00 0.13 0.13 86 1019.8
20260903234017 63 191 1.0 4.0 0.00 0.13 0.13 86 1019.7
20260903233510 63 179 2.0 5.0 0.00 0.13 0.13 86 1019.7
20260903233028 63 169 2.0 5.0 0.00 0.13 0.13 86 1019.7
20260903232510 63 144 1.0 5.0 0.00 0.13 0.13 86 1019.7
20260903232018 63 152 2.0 4.0 0.00 0.13 0.13 86 1019.7
20260903231510 63 224 1.0 3.0 0.00 0.13 0.13 86 1019.7
20260903231017 63 194 2.0 4.0 0.00 0.13 0.13 86 1019.6
20260903230510 63 157 1.0 4.0 0.00 0.13 0.13 86 1019.7
20260903230018 63 216 1.0 3.0 0.01 0.13 0.13 86 1019.8
20260903225509 63 181 1.0 5.0 0.01 0.13 0.13 86 1019.9
20260903225017 63 136 2.0 5.0 0.01 0.13 0.13 86 1019.9
20260903224509 63 162 2.0 5.0 0.01 0.13 0.13 86 1019.9
20260903224018 63 146 1.0 4.0 0.01 0.13 0.13 86 1019.9
20260903223509 63 204 2.0 4.0 0.01 0.13 0.13 86 1020.0
20260903223028 63 216 2.0 3.0 0.01 0.13 0.13 86 1019.9
20260903222510 63 164 2.0 3.0 0.01 0.13 0.13 85 1020.1
20260903222028 63 200 2.0 3.0 0.01 0.13 0.13 85 1020.1
20260903221520 63 148 1.0 4.0 0.01 0.13 0.13 85 1020.3
20260903221018 63 205 2.0 4.0 0.01 0.13 0.13 85 1020.2
20260903220510 63 200 1.0 5.0 0.01 0.13 0.13 84 1020.3
20260903220017 63 157 2.0 5.0 0.00 0.12 0.12 84 1020.3
20260903215509 64 197 2.0 4.0 0.00 0.12 0.12 83 1020.3
20260903215017 64 153 2.0 5.0 0.00 0.12 0.12 82 1020.3
20260903214510 64 203 2.0 5.0 0.00 0.12 0.12 82 1020.4
20260903214017 65 201 3.0 5.0 0.00 0.12 0.12 81 1020.4
20260903213521 65 177 2.0 5.0 0.00 0.12 0.12 80 1020.5
20260903213017 65 171 1.0 5.0 0.00 0.12 0.12 79 1020.4
20260903212510 65 120 2.0 4.0 0.00 0.12 0.12 79 1020.5
20260903212017 65 149 2.0 6.0 0.00 0.12 0.12 79 1020.6
20260903211510 65 175 3.0 9.0 0.00 0.12 0.12 79 1020.6
20260903211017 66 174 2.0 9.0 0.00 0.12 0.12 78 1020.5
20260903210510 66 160 3.0 7.0 0.00 0.12 0.12 78 1020.5
20260903210018 66 217 3.0 7.0 0.00 0.12 0.12 78 1020.7
20260903205509 66 166 2.0 7.0 0.00 0.12 0.12 78 1020.7
20260903205018 66 163 2.0 7.0 0.00 0.12 0.12 78 1020.8
20260903204520 66 176 3.0 6.0 0.00 0.12 0.12 78 1021.0
20260903204017 66 162 2.0 6.0 0.00 0.12 0.12 77 1020.9
20260903203510 66 131 3.0 8.0 0.00 0.12 0.12 77 1020.9
20260903203017 66 175 3.0 8.0 0.00 0.12 0.12 77 1020.9
20260903202510 67 168 3.0 6.0 0.00 0.12 0.12 76 1020.9
20260903202028 67 156 3.0 6.0 0.00 0.12 0.12 76 1021.1
20260903201510 67 129 2.0 6.0 0.00 0.12 0.12 76 1021.0
20260903201017 67 147 2.0 8.0 0.00 0.12 0.12 76 1020.9
20260903200510 67 162 3.0 8.0 0.00 0.12 0.12 74 1020.9
20260903200017 67 198 3.0 11.0 0.00 0.12 0.12 74 1020.9
20260903195510 67 124 3.0 8.0 0.00 0.12 0.12 74 1021.0
20260903195022 67 156 4.0 8.0 0.00 0.12 0.12 73 1021.0
20260903194511 67 221 3.0 7.0 0.00 0.12 0.12 74 1021.0
20260903194017 67 144 1.0 7.0 0.00 0.12 0.12 75 1021.0
20260903193510 67 165 3.0 9.0 0.00 0.12 0.12 74 1021.0
20260903193018 67 89 4.0 9.0 0.00 0.12 0.12 73 1021.1
20260903192510 67 144 4.0 7.0 0.00 0.12 0.12 71 1021.2
20260903192017 67 140 2.0 9.0 0.00 0.12 0.12 71 1021.3
20260903191515 67 140 4.0 9.0 0.00 0.12 0.12 69 1021.4
20260903191018 68 168 2.0 7.0 0.00 0.12 0.12 70 1021.6
20260903190510 68 154 4.0 8.0 0.00 0.12 0.12 70 1021.6
20260903190029 68 139 4.0 7.0 0.00 0.12 0.12 70 1021.8
20260903185510 68 117 4.0 7.0 0.00 0.12 0.12 71 1021.8
20260903185018 68 166 3.0 6.0 0.00 0.12 0.12 71 1021.7
20260903184521 67 175 3.0 7.0 0.00 0.12 0.12 71 1021.8
20260903184018 67 132 4.0 7.0 0.00 0.12 0.12 71 1021.9
20260903183521 67 205 3.0 6.0 0.00 0.12 0.12 71 1021.9
20260903183018 67 193 3.0 8.0 0.00 0.12 0.12 70 1021.9
20260903182510 67 143 4.0 8.0 0.00 0.12 0.12 70 1021.9
20260903182017 67 177 3.0 8.0 0.00 0.12 0.12 71 1021.9
20260903181521 67 139 4.0 9.0 0.00 0.12 0.12 71 1022.0
20260903181017 67 115 3.0 9.0 0.00 0.12 0.12 71 1022.0
20260903180510 67 166 3.0 9.0 0.00 0.12 0.12 71 1022.1
20260903180029 67 181 4.0 7.0 0.00 0.12 0.12 71 1022.1
20260903175510 67 177 4.0 9.0 0.00 0.12 0.12 71 1022.1
20260903175028 67 155 4.0 9.0 0.00 0.12 0.12 72 1022.2
20260903174510 67 181 4.0 7.0 0.00 0.12 0.12 73 1022.2
20260903174018 67 159 4.0 9.0 0.00 0.12 0.12 73 1022.3
20260903173521 67 142 4.0 9.0 0.00 0.12 0.12 72 1022.4
20260903173019 67 139 4.0 8.0 0.00 0.12 0.12 73 1022.4
20260903172522 67 134 3.0 8.0 0.00 0.12 0.12 73 1022.3
20260903172017 67 100 5.0 10.0 0.00 0.12 0.12 73 1022.4
20260903171510 67 231 2.0 10.0 0.00 0.12 0.12 74 1022.4
20260903171018 67 138 3.0 11.0 0.00 0.12 0.12 73 1022.3
20260903170545 67 129 5.0 11.0 0.00 0.12 0.12 72 1022.4
20260903170018 67 247 4.0 11.0 0.00 0.12 0.12 74 1022.4
20260903165521 67 139 6.0 11.0 0.00 0.12 0.12 72 1022.4
20260903165018 67 147 5.0 13.0 0.00 0.12 0.12 73 1022.4
20260903164510 67 135 6.0 13.0 0.00 0.12 0.12 72 1022.5
20260903164018 68 196 6.0 11.0 0.00 0.12 0.12 72 1022.6
20260903163510 68 126 6.0 11.0 0.00 0.12 0.12 71 1022.6
20260903163017 68 127 4.0 11.0 0.00 0.12 0.12 72 1022.6
20260903162515 68 125 5.0 9.0 0.00 0.12 0.12 72 1022.7
20260903162022 68 161 4.0 9.0 0.00 0.12 0.12 72 1022.9
20260903161521 68 143 3.0 9.0 0.00 0.12 0.12 73 1022.9
20260903161018 68 103 6.0 11.0 0.00 0.12 0.12 73 1022.9
20260903160510 68 163 5.0 11.0 0.00 0.12 0.12 75 1022.8
20260903160018 67 80 3.0 11.0 0.00 0.12 0.12 75 1022.8
20260903155510 68 105 5.0 11.0 0.00 0.12 0.12 74 1022.9
20260903155018 68 112 7.0 10.0 0.00 0.12 0.12 71 1022.9
20260903154511 68 158 5.0 9.0 0.00 0.12 0.12 72 1022.8
20260903154017 68 150 5.0 8.0 0.00 0.12 0.12 74 1022.9
20260903153511 67 107 3.0 10.0 0.00 0.12 0.12 75 1023.0
20260903153028 67 135 4.0 9.0 0.00 0.12 0.12 74 1022.9
20260903152521 67 157 4.0 10.0 0.00 0.12 0.12 74 1022.9
20260903152017 67 131 5.0 10.0 0.00 0.12 0.12 72 1022.9
20260903151510 67 122 5.0 10.0 0.00 0.12 0.12 73 1022.9
20260903151018 67 176 4.0 9.0 0.00 0.12 0.12 74 1022.9
20260903150510 67 86 5.0 11.0 0.00 0.12 0.12 75 1023.0
20260903150018 67 134 6.0 10.0 0.00 0.12 0.12 75 1023.2
20260903145511 67 129 6.0 10.0 0.00 0.12 0.12 75 1023.1
20260903145017 68 113 6.0 10.0 0.00 0.12 0.12 74 1023.1
20260903144510 68 110 7.0 10.0 0.00 0.12 0.12 73 1023.1
20260903144018 68 109 4.0 9.0 0.00 0.12 0.12 75 1023.3
20260903143521 68 153 4.0 8.0 0.00 0.12 0.12 76 1023.5
20260903143019 68 160 5.0 12.0 0.00 0.12 0.12 76 1023.5
20260903142511 67 131 6.0 12.0 0.00 0.12 0.12 75 1023.6
20260903142018 67 203 5.0 10.0 0.00 0.12 0.12 76 1023.5
20260903141518 67 241 5.0 9.0 0.00 0.12 0.12 76 1023.4
20260903141010 67 152 5.0 8.0 0.00 0.12 0.12 77 1023.4
20260903140518 66 145 4.0 8.0 0.00 0.12 0.12 77 1023.4
20260903140021 66 167 4.0 7.0 0.00 0.12 0.12 79 1023.4
20260903135519 66 128 3.0 7.0 0.00 0.12 0.12 80 1023.4
20260903135010 65 165 3.0 8.0 0.00 0.12 0.12 80 1023.4
20260903134518 65 162 3.0 8.0 0.00 0.12 0.12 80 1023.4
20260903134011 65 153 2.0 7.0 0.00 0.12 0.12 81 1023.4
20260903133529 65 131 3.0 6.0 0.00 0.12 0.12 81 1023.3
20260903133015 65 146 3.0 7.0 0.00 0.12 0.12 82 1023.3
20260903132529 65 141 3.0 7.0 0.00 0.12 0.12 81 1023.2
20260903132010 65 120 2.0 7.0 0.00 0.12 0.12 83 1023.3
20260903131519 65 147 2.0 6.0 0.00 0.12 0.12 85 1023.4
20260903131010 65 86 2.0 5.0 0.00 0.12 0.12 86 1023.5
20260903130518 64 150 2.0 5.0 0.00 0.12 0.12 88 1023.5
20260903130010 64 158 1.0 3.0 0.00 0.12 0.12 90 1023.5
20260903125518 64 140 1.0 2.0 0.00 0.12 0.12 90 1023.5
20260903125016 64 149 1.0 3.0 0.00 0.12 0.12 90 1023.5
20260903124518 63 80 0.0 4.0 0.00 0.12 0.12 91 1023.6
20260903124023 63 92 1.0 4.0 0.00 0.12 0.12 91 1023.4
20260903123529 63 145 1.0 4.0 0.00 0.12 0.12 91 1023.5
20260903123011 63 147 1.0 4.0 0.00 0.12 0.12 92 1023.5
20260903122518 63 230 0.0 3.0 0.00 0.12 0.12 92 1023.5
20260903122010 62 125 1.0 3.0 0.00 0.12 0.12 92 1023.5
20260903121519 62 174 0.0 1.0 0.00 0.12 0.12 93 1023.4
20260903121010 62 115 0.0 2.0 0.00 0.12 0.12 93 1023.5
20260903120518 62 108 1.0 2.0 0.00 0.12 0.12 93 1023.7
20260903120019 62 113 0.0 2.0 0.00 0.12 0.12 93 1023.8
20260903115521 62 111 0.0 2.0 0.00 0.13 0.12 93 1023.9
20260903115019 61 86 0.0 2.0 0.00 0.13 0.12 93 1023.9
20260903114511 61 52 1.0 2.0 0.00 0.13 0.12 93 1023.9
20260903114029 61 103 1.0 2.0 0.00 0.13 0.12 94 1024.0
20260903113521 61 61 0.0 2.0 0.00 0.13 0.12 94 1024.0
20260903113018 61 68 0.0 2.0 0.00 0.13 0.12 94 1023.9
20260903112511 61 77 0.0 3.0 0.00 0.13 0.12 94 1023.9
20260903112018 60 44 1.0 3.0 0.00 0.13 0.12 94 1023.9
20260903111510 60 65 1.0 2.0 0.00 0.13 0.12 94 1023.8
20260903111023 60 90 0.0 2.0 0.00 0.13 0.12 94 1023.9
20260903110625 60 61 1.0 2.0 0.00 0.13 0.12 94 1024.1
20260903110018 60 65 0.0 1.0 0.00 0.13 0.12 94 1024.0
20260903105510 60 30 0.0 1.0 0.00 0.13 0.12 94 1024.0
20260903105018 60 30 0.0 1.0 0.00 0.13 0.12 94 1023.9
20260903104510 60 30 0.0 3.0 0.00 0.13 0.12 94 1023.9
20260903104018 60 26 1.0 3.0 0.00 0.13 0.12 94 1024.0
20260903103521 60 17 0.0 3.0 0.00 0.13 0.12 94 1024.0
20260903103018 60 4 1.0 3.0 0.00 0.13 0.12 94 1023.9
20260903102511 60 17 1.0 2.0 0.00 0.13 0.12 94 1024.0
20260903102018 60 48 0.0 1.0 0.00 0.13 0.12 94 1023.9
20260903101518 60 49 0.0 2.0 0.00 0.13 0.12 94 1023.9
20260903101013 60 28 1.0 3.0 0.00 0.13 0.12 94 1023.9
20260903100518 60 45 1.0 3.0 0.00 0.13 0.12 94 1023.8
20260903100011 60 63 1.0 2.0 0.00 0.13 0.12 94 1023.7
20260903095518 60 75 0.0 1.0 0.00 0.13 0.12 94 1023.7
20260903095010 59 68 0.0 2.0 0.00 0.13 0.12 94 1023.7
20260903094518 60 347 0.0 2.0 0.00 0.13 0.12 94 1023.8
20260903094010 59 14 1.0 3.0 0.00 0.13 0.12 94 1023.8
20260903093518 59 13 1.0 3.0 0.01 0.13 0.12 94 1023.9
20260903093010 59 8 1.0 3.0 0.01 0.13 0.12 94 1023.8
20260903092518 59 298 0.0 2.0 0.01 0.13 0.12 94 1023.9
20260903092019 59 8 0.0 3.0 0.01 0.13 0.12 94 1023.9
20260903091511 59 91 0.0 3.0 0.01 0.13 0.12 94 1023.8
20260903091018 59 28 0.0 3.0 0.01 0.13 0.12 94 1023.8
20260903090511 59 341 1.0 4.0 0.01 0.13 0.12 94 1023.7
20260903090023 59 25 1.0 4.0 0.02 0.13 0.12 94 1023.8
20260903085511 59 321 2.0 4.0 0.02 0.13 0.12 94 1023.7
20260903085019 59 355 2.0 3.0 0.02 0.13 0.12 94 1023.7
20260903084511 59 345 1.0 2.0 0.04 0.13 0.12 94 1023.7
20260903084029 59 328 1.0 3.0 0.05 0.13 0.12 94 1023.7
20260903083511 59 343 1.0 3.0 0.04 0.12 0.11 94 1023.7
20260903083019 59 341 1.0 3.0 0.10 0.12 0.11 94 1023.8
20260903082510 59 340 2.0 5.0 0.10 0.12 0.11 94 1023.8
20260903082029 59 333 2.0 5.0 0.10 0.12 0.11 94 1023.9
20260903081512 59 323 3.0 5.0 0.10 0.12 0.11 93 1023.9
20260903081018 60 323 3.0 5.0 0.10 0.12 0.11 93 1023.9
20260903080511 60 321 3.0 5.0 0.10 0.12 0.11 93 1023.9
20260903080019 60 341 2.0 5.0 0.09 0.11 0.10 93 1024.0
20260903075511 60 324 2.0 7.0 0.10 0.11 0.10 93 1024.0
20260903075019 60 307 4.0 7.0 0.09 0.10 0.09 93 1023.9
20260903074511 60 322 2.0 6.0 0.08 0.09 0.08 93 1024.0
20260903074018 60 335 4.0 6.0 0.07 0.08 0.07 93 1024.0
20260903073511 60 333 2.0 5.0 0.06 0.07 0.06 92 1024.1
20260903073030 60 296 2.0 4.0 0.01 0.02 0.01 92 1024.0
20260903072512 60 303 2.0 3.0 0.01 0.02 0.01 92 1024.0
20260903072018 60 2 1.0 4.0 0.01 0.02 0.01 92 1024.0
20260903071511 60 352 2.0 6.0 0.01 0.02 0.01 91 1023.9
20260903071029 60 17 1.0 6.0 0.01 0.02 0.01 91 1024.1
20260903070511 60 314 3.0 4.0 0.01 0.02 0.01 90 1024.1
20260903070019 61 327 1.0 3.0 0.01 0.02 0.01 90 1024.0
20260903065511 61 18 0.0 2.0 0.00 0.01 0.00 90 1024.1
20260903065019 61 307 0.0 1.0 0.00 0.01 0.00 90 1024.1
20260903064512 61 307 0.0 1.0 0.00 0.01 0.00 90 1024.0
20260903064018 61 307 0.0 1.0 0.00 0.01 0.00 90 1024.1
20260903063511 61 318 0.0 1.0 0.00 0.01 0.00 89 1024.1
20260903063023 61 318 0.0 2.0 0.00 0.01 0.00 89 1023.9
20260903062511 61 317 1.0 4.0 0.00 0.01 0.00 88 1024.0
20260903062019 61 221 1.0 6.0 0.00 0.01 0.00 89 1024.0
20260903061511 61 141 2.0 6.0 0.00 0.01 0.00 89 1023.8
20260903061029 61 139 2.0 4.0 0.00 0.01 0.00 89 1023.8
20260903060522 61 140 1.0 3.0 0.00 0.01 0.00 89 1023.8
20260903060019 61 137 1.0 4.0 0.00 0.01 0.00 89 1023.9
20260903055511 61 172 1.0 4.0 0.00 0.01 0.00 90 1023.8
20260903055019 61 141 1.0 3.0 0.00 0.01 0.00 90 1023.8
20260903054511 61 136 0.0 3.0 0.00 0.01 0.00 90 1023.8